Погода в Воркуте

Погода в Воркуте : погода сейчас, прогноз погоды и архив. Всё, что Вы хотите узнать о погоде в Воркуте!

Хотите узнать прогноз погоды в Воркуте? Тогда Вам сюда: Погода в Воркуте

Поиск расширенной информации на нашем сайте:

Другие новости

Новости СМИ2

Главная страница сайта

Новости сайта

03.07.2017

Напоминаем, что на нашем специализированном сайте Метеоцентр.Азия вы можете получить высокодетализированные автоматические прогнозы погоды по пунктам России, СНГ и мира в авиационном формате (включающие направление и скорость ветра, видимость, явления погоды, количество и форму облачности, нижнюю и верхнюю границу облачности).


Погода в Воркуте - сегодня

Время (UTC), дата Ветер
(°,м/с) 
Видим.   Явления Облачность Т
(°С)
Тd
(°С)
f(%) Тe
(°С)
Pmin
(гПа)
dP
(гПа)
Po
(мм)
O2
(г/м3)
Тmin Tmax R s Состояние
почвы
18 09.04.18 070 (В) 0200 м  переохл. туман  ?/?  
-9 -9.7 95 -11  1021.7  749  313           
21 09.04.18 тихо ()   0100 м  переохл. туман  ?/?  
-10.2 -10.8 95 -10  1021.4  -0.5  749  315           
00 10.04.18 330 (СЗ) 0200 м  переохл. туман  ?/?  
-12.1 -12.7 95 -12  1020.5  -1.1  748  317           
06 10.04.18 090 (В) 10 км  {снег, туман}  3/0 верхняя 
[Cs]
-9.6 -10.4 94 -11  1017.4  -2  746  313           
09 10.04.18 080 (В) 10 км    3/0 верхняя 
[Ci fib]
-6.5 -10.6 73 -11  1013.8  -3.1  744  308           
12 10.04.18 080 (В) 10 км    10/0 средняя, верхняя 
[As trans|Ci]
-5.7 -10 72 -11  1009.6  -4.2  741  306           
09 11.04.18 020 (С) 2600 м  снег  10/4 300 м средняя 
[Sc|As op]
-5.2 -6.6 90 -8  990.3  727  299           
15 11.04.18 350 (С) 8-12{13}  1400 м  сильн. снег  10/10 330 м 
[Sc]
-8.2 -9.6 90 -14  994.7  730  304    -5     
03 12.04.18 310 (СЗ) 8-11{19}  7000 м  слаб. снег  10/6 480 м средняя 
[Sc|Ac As]
-12.1 -14.1 85 -19  997.8  0.3  732  310  -12.2    78  очень
неравномерный
сухой снег
(сугробы, заносы) 
12 13.04.18 350 (С) 10 км  {снег}  9/4 1000 м средняя 
[Sc|Ac trans]
-7.6 -10.2 82 -11  1012.8  1.8  743  309           
18 13.04.18 250 (З) 10 км    10/6 700 м средняя 
[Sc|Ac und]
-13.2 -14.5 90 -17  1013  -1.3  743  316           
00 14.04.18 190 (Ю) 11-14{14}  1200 м  сильн. снег  10/8 150 м средняя 
[Frnb|As op]
-9.4 -10.1 95 -17  1003.3  -6.1  736  308           
12 14.04.18 300 (СЗ) 9-13{16}  5000 м  метель{снег}  10/6 400 м средняя 
[Sc|Ac und]
-2.9 -4.6 88 -8  994.5  1.8  730  298           
15 14.04.18 290 (З) 8-10{13}  9000 м  слаб. ливневой снег  10/10 900 м кучево-дожд. 
[Cb cap]
-4.6 -6.6 86 -10  994.5  -0.1  730  300    -0.5     
00 16.04.18 010 (С) 10 км  в посл. час снег  10/0 средняя 
[Ac As]
-18 -19.9 85 -22  1007.8  1.3  739  320           
06 16.04.18 340 (С) 10 км    3/0 верхняя 
[Ci fib]
-17.7 -20.3 80 -23  1011.6  2.1  741  321           
09 16.04.18 300 (СЗ) 10 км    10/0 верхняя 
[Ci fib]
-15.3 -18.7 75 -18  1013.5  2.1  743  319           
12 16.04.18 310 (СЗ) 10 км    10/0 средняя 
[Ac und]
-15.8 -19.2 75 -20  1015.8  2.2  745  320           
00 17.04.18 180 (Ю) 10 км  {снег}  3/0 средняя 
[Ac lent]
-23.7 -25.6 84 -27  1018.6  0.6  746  331           
06 17.04.18 170 (Ю) 10 км    10/0 средняя, верхняя 
[As trans|Cs]
-19.1 -21 85 -23  1019.9  0.9  747  325           
21 17.04.18 220 (ЮЗ) 6000 м    10/10 330 м кучево-дожд. 
[Cb cap]
-10.4 -11.7 90 -16  1015.5  -1.7  745  313           
03 18.04.18 200 (Ю) 11-14{14}  1700 м  сильн. снег{ливн. осадки}  10/10 330 м 
[Sc]
-8.3 -9.3 92 -15  1011  -2.7  742  309  -13.4    90  очень
неравномерный
сухой снег
(сугробы, заносы) 
15 18.04.18 270 (З) 7-10{17}  6000 м  слаб. ливневой снег  10/10 540 м кучево-дожд. 
[Cb cap]
-5.3 -7.1 87 -10  998.6  -0.6  733  302    -3.4     
00 19.04.18 280 (З) 10-14{14}  2200 м  метель{ливн. осадки}  10/10 360 м 
[Sc]
-10.6 -12.6 85 -18  996.5  -0.7  731  308           
03 19.04.18 300 (СЗ) 8-12{14}  4100 м  метель{снег}  9/6 330 м средняя, верхняя 
[Sc|Ac trans|Ci fib]
-11.8 -13.8 85 -19  996.6  -0.1  731  309  -11.8    0.3  88  очень
неравномерный
сухой снег
(сугробы, заносы) 
Время (UTC), дата Ветер
(°,м/с) 
Видим.   Явления Облачность Т
(°С)
Тd
(°С)
f(%) Тe
(°С)
Pmin
(гПа)
dP
(гПа)
Po
(мм)
O2
(г/м3)
Тmin Tmax R s Состояние
почвы

Для получения пояснительной информации подведите курсор к названию столбца.

ПОГОДА в Воркуте - архив

Всё, что Вы хотите узнать о погоде в Воркуте - удобно и подробно!

Выберите нужную дату (начиная с 1 января 2015* года) и нажмите кнопку "Найти".
Будут отображены архивные сводки погоды по пункту Воркута, начиная с указанной даты.


Отображать данные в формате CSV (для использования в таблицах Excel)


Внимание! Наш архив погоды предназначен исключительно для личного некоммерческого использования в познавательных целях. Если Вам необходимы официальные справки о состоянии погоды (для производственных, юридических, коммерческих и т.п. целей), обращайтесь в органы Росгидромета.

*Примечание: данная дата относится к архиву по метеостанциям СССР (Россия, СНГ, Балтия).
Архив по метеостанциям Зарубежной Европы и Азии (кроме Китая) хранится 10 дней, по другим регионам земного шара (Китай, Африка, Америка, Австралия, Океания) - 1 день.

Воркута - район местоположения метеостанции


Название, широта, долгота, высота метеостанции:
Воркута 67.5°ш. 64°д. 172 м над ур. моря [Российская Федерация]

Дополнительная информация

В oтличие oт бoльшинства пoгoдных сайтoв мы публикуем пoдрoбную метеoинфoрмацию в детальнoм прoфессиoнальнoм фoрмате.

Характеристики температуры и влажнoсти вoздуха измеряются на высoте 2 м в тени вдали oт зданий и деревьев.
Скoрoсть ветра измеряется на высoте 10 м (на урoвне рoста челoвека скoрoсть ветра ниже в 1.5-2 раза). Если метеoстанция нахoдится в гoрoде или в лесу, тo скoрoсть ветра занижена на 2-4 м/с пo сравнению с oткрытым местoм. Скoрoсть ветра над акватoриями крупных рек и oзёр, а также на вершинах хoлмoв на 2-5 м/с выше, чем в oбычных услoвиях.
Атмoсфернoе давление в разных тoчках местнoсти мoжет значительнo oтличаться oт давления на метеoстанции, в зависимoсти oт услoвий рельефа (при пoдъёме на 10 м давление пoнижается примернo на 1 мм рт.ст.).